This is the latest recevied weather packets stored in our database for station/object KC0SIQ-13. If no packets are shown the sender has not sent any weather packets the latest 1 day(s).
| Time | Temp. | Humidity | Pressure | Rain* | Wind** | Luminosity | Snow |
|---|---|---|---|---|---|---|---|
| 1778033933 | 0.56° C | 99% | 1013.1 hPa | 0 mm | 0 m/s | 0 W/m² | - |
| 1778033630 | 0.56° C | 99% | 1012.8 hPa | 0 mm | 0 m/s | 0 W/m² | - |
| 1778033326 | 0.56° C | 99% | 1012.6 hPa | 0 mm | 0 m/s | 0 W/m² | - |
| 1778033024 | 0.56° C | 99% | 1012.6 hPa | 0 mm | 0 m/s | 0 W/m² | - |
| 1778032721 | 0.56° C | 99% | 1012.4 hPa | 0 mm | 0 m/s | 0 W/m² | - |
| 1778032419 | 0.56° C | 99% | 1012.5 hPa | 0 mm | 0 m/s | 0 W/m² | - |
| 1778032115 | 0.56° C | 99% | 1012.6 hPa | 0 mm | 0 m/s | 1 W/m² | - |
| 1778031812 | 0.56° C | 99% | 1012.1 hPa | 0 mm | 0 m/s | 1 W/m² | - |
| 1778031509 | 0.56° C | 99% | 1012.3 hPa | 0 mm | 0 m/s | 3 W/m² | - |
| 1778031206 | 0.56° C | 99% | 1012.5 hPa | 0 mm | 0 m/s | 2 W/m² | - |
| 1778030903 | 0.56° C | 99% | 1012.5 hPa | 0 mm | 0 m/s | 3 W/m² | - |
| 1778030600 | 0.56° C | 99% | 1011.9 hPa | 0 mm | 0 m/s | 4 W/m² | - |
| 1778030297 | 0.56° C | 99% | 1012.1 hPa | 0 mm | 0 m/s | 4 W/m² | - |
| 1778029994 | 0.56° C | 99% | 1011.9 hPa | 0 mm | 0 m/s | 6 W/m² | - |
| 1778029691 | 0.56° C | 99% | 1011.9 hPa | 0 mm | 0 m/s | 6 W/m² | - |
| 1778029389 | 0.56° C | 99% | 1012 hPa | 0 mm | 0 m/s | 7 W/m² | - |
| 1778029086 | 0.56° C | 99% | 1012 hPa | 0 mm | 0 m/s | 7 W/m² | - |
| 1778028782 | 0.56° C | 99% | 1012.1 hPa | 0 mm | 0 m/s | 7 W/m² | - |
| 1778028478 | 0.56° C | 99% | 1012.3 hPa | 0 mm | 0 m/s | 8 W/m² | - |
| 1778028177 | 0.56° C | 99% | 1012.1 hPa | 0 mm | 0 m/s | 10 W/m² | - |
| 1778027872 | 0.56° C | 99% | 1011.9 hPa | 0 mm | 0 m/s | 12 W/m² | - |
| 1778027569 | 0.56° C | 99% | 1012 hPa | 0 mm | 0 m/s | 10 W/m² | - |
| 1778027265 | 0.56° C | 99% | 1012.1 hPa | 0 mm | 0 m/s | 12 W/m² | - |
| 1778026961 | 0.56° C | 99% | 1011.9 hPa | 0 mm | 0 m/s | 14 W/m² | - |
| 1778026657 | 0.56° C | 99% | 1012 hPa | 0 mm | 0 m/s | 17 W/m² | - |
* Rain latest hour (hover to see other rain measurements)
** Current wind speed in m/s (hover to see current wind gust speed)